www.pogodaiklimat.ru
ПОГОДА в Саве
Время
(UTC), дата
09 15.10
12 15.10
15 15.10
18 15.10
21 15.10
00 16.10
03 16.10
06 16.10
09 16.10
12 16.10
15 16.10
18 16.10
21 16.10
00 17.10
03 17.10
06 17.10
09 17.10
12 17.10
15 17.10
18 17.10
21 17.10
00 18.10
03 18.10
06 18.10
09 18.10
12 18.10
15 18.10
18 18.10
21 18.10
00 19.10
03 19.10
06 19.10
09 19.10
12 19.10
15 19.10
18 19.10
21 19.10
00 20.10
03 20.10
06 20.10
09 20.10
12 20.10
15 20.10
18 20.10
21 20.10
00 21.10
03 21.10
06 21.10
09 21.10
12 21.10
15 21.10
18 21.10
21 21.10
00 22.10
03 22.10
06 22.10
Ветер
(напр.,м/с)
Видим. Явления Облачность Т
(С)
Тd
(С)
f
(%)
Тe
(С)
Тes
(С)
Комфортность P
(гПа)
Po
(гПа)
Тmin
(С)
Tmax
(С)
R
(мм)
R24
(мм)
S
(см)
З 3 8000 м 10/10 240 м
[Sc]
+26.0 +23.1 84 +35 +35 очень
душно
1013.1 990.2
Ю 2 10 км 9/9 300 м
[Cu Sc Ci sp]
+29.1 +23.2 71 +39 +41 очень
душно
1011.9 989.1
Ю 1 10 км 9/8 300 м
[Cu Sc Ci sp]
+31.5 +23.7 63 +43 +44 опасность
перегрева
1010.9 987.2
Ю 1 10 км 9/5 300 м
[Cu Sc Ci sp]
+29.5 +24.6 75 +42 +42 опасность
перегрева
1009.4 986.6 +32.0
ЮВ 1 10 км 9/9 300 м
[Sc]
+26.3 +23.3 84 +36 +36 очень
душно
1012.4 989.5
Ю 1 10 км 9/3 300 м
[Sc Ac trans Ci sp]
+24.5 +23.0 91 +32 +32 очень
душно
1013.0 990.1
Ю 1 3200 м дымка 10/10 240 м
[Sc]
+23.8 +22.8 94 +31 +31 очень
душно
1011.7 989.0
ЮВ 1 6000 м 10/10 240 м
[Sc]
+23.5 +22.5 94 +31 +31 очень
душно
1012.1 989.3 +22.9
Ю 3 8000 м 10/10 240 м
[Sc]
+25.5 +22.6 84 +34 +34 очень
душно
1014.0 991.0
Ю 2 10 км 9/9 300 м
[Cu Sc Ci sp]
+28.5 +22.9 72 +38 +40 очень
душно
1012.6 989.8
В 1 10 км 9/6 300 м
[Cb cap Ci sp]
+30.9 +23.2 64 +41 +45 опасность
перегрева
1010.2 987.4
Ю 2 10 км зарница 9/3 400 м
[Cb cap Ci sp]
+29.5 +24.4 74 +41 +41 опасность
перегрева
1010.4 987.6 +31.6
В 2 8000 м гроза, ливневой дождь 10/4 900 м
[Cb cap Ac As]
+22.5 +21.0 91 +29 +29 очень
душно
1014.9 991.8
Ю 1 8000 м слаб. дождь {гроза} 10/1 240 м
[Sc Ac As]
+22.0 +21.2 95 +28 +28 душно 1012.8 989.8 18
СЗ 2 8000 м {дождь} 9/0
[Ac trans Ci sp]
+22.0 +21.2 95 +28 +28 душно 1011.2 988.4
ЮВ 1 6000 м {дождь} 9/1 180 м
[St Ac trans Ci sp]
+21.8 +20.6 93 +28 +28 душно 1011.6 988.7 +20.9 18
С 2 10 км 9/6 300 м
[Sc Ac trans Ci sp]
+24.5 +21.5 83 +31 +34 очень
душно
1014.0 990.9
Ю 2 10 км 9/3 400 м
[Cu hum Ac trans Ci sp]
+27.8 +22.3 72 +36 +44 очень
душно
1012.0 989.0
Ю 2 10 км 9/1 400 м
[Cu med, cong Ac trans Ci sp]
+28.7 +23.1 72 +39 +43 очень
душно
1009.8 986.9
Ю 1 10 км 9/1 900 м
[Cb cap Ac trans Ci sp]
+26.9 +23.3 81 +36 +36 очень
душно
1010.4 987.4 +29.5
ЮВ 3 8000 м гроза, ливневой дождь 10/10 300 м
[Cb cap]
+25.8 +21.8 79 +33 +33 очень
душно
1012.5 989.5
штиль 0 10 км {гроза, дождь} 9/0
[Ac As Ci sp]
+24.0 +22.4 91 +31 +31 очень
душно
1011.9 989.0 2
Ю 1 10 км 10/10 240 м
[Sc]
+24.4 +23.1 92 +32 +32 очень
душно
1010.9 988.1
С 2 8000 м 10/10 240 м
[Sc]
+24.2 +23.2 94 +32 +32 очень
душно
1011.8 988.9 +23.1 2
С 2 8000 м гроза без осадков 9/6 240 м
[Cb cap Ac As Ci sp]
+24.3 +22.7 91 +32 +35 очень
душно
1013.3 990.3
ЮЗ 4 10 км {гроза, дождь} 9/5 330 м
[Cu Sc Ac trans Ci sp]
+28.5 +22.7 71 +38 +42 очень
душно
1010.6 987.7 0.9
Ю 2 10 км 9/9 360 м
[Cu Sc Ac trans Ci sp]
+30.5 +24.2 69 +42 +43 опасность
перегрева
1008.2 985.5
штиль 0 10 км 9/4 400 м
[Cu med, cong Ac As Ci sp]
+27.0 +24.1 84 +37 +37 очень
душно
1009.0 986.2 +31.5 0.9
Ю 1 10 км зарница 6/1 900 м
[Cb cap Ci sp]
+25.4 +23.8 91 +35 +35 очень
душно
1011.8 988.8
ЮВ 1 5000 м зарница 9/8 300 м
[Cb cap Ci sp]
+24.1 +23.1 94 +32 +32 очень
душно
1011.3 988.4
ЮЗ 2 5000 м гроза, ливневой дождь 10/10 240 м
[Cb cap]
+24.1 +23.1 94 +32 +32 очень
душно
1009.6 986.8
СЗ 1 5000 м в посл. час гроза {дождь} 10/10 240 м
[Sc]
+24.0 +23.3 96 +32 +32 очень
душно
1010.9 988.0 +23.4 4
ЮЗ 1 10 км 9/9 300 м
[Sc Ac trans Ci sp]
+26.1 +23.2 84 +35 +36 очень
душно
1011.7 988.8
Ю 2 10 км 9/9 300 м
[Cu Sc Ac trans Ci sp]
+29.0 +23.3 71 +39 +41 очень
душно
1009.5 986.7
СЗ 1 8000 м гроза, ливневой дождь 10/6 300 м
[Cb cap Ac As]
+24.4 +22.8 91 +32 +33 очень
душно
1008.5 985.5
ЮВ 1 8000 м гроза, ливневой дождь 10/8 300 м
[Cb cap Ac As]
+23.2 +21.9 92 +31 +31 очень
душно
1010.2 987.2 +29.5 12
ЮВ 2 6000 м слаб. ливневой дождь, в посл. час гроза 10/4 240 м
[Sc Ac As]
+23.1 +22.2 95 +32 +32 очень
душно
1012.8 989.8
ЮВ 1 8000 м {гроза, дождь} 10/0
[Ac As]
+23.2 +22.2 94 +32 +32 очень
душно
1012.2 989.3 7
штиль 0 8000 м 10/10 240 м
[Sc]
+23.2 +22.2 94 +32 +32 очень
душно
1010.9 987.9
штиль 0 8000 м слаб. дождь 10/5 240 м
[Sc Ac As]
+23.2 +22.3 95 +32 +32 очень
душно
1012.3 989.2 +22.5 19
ЮВ 1 10 км {дождь} 9/6 300 м
[Sc Ac trans Ci sp]
+25.0 +23.1 89 +33 +36 очень
душно
1014.0 990.9
Ю 4 10 км {дождь} 9/6 300 м
[Cu Sc Ac trans Ci sp]
+28.8 +23.4 73 +39 +42 очень
душно
1011.6 988.7 2
Ю 2 10 км 9/5 300 м
[Cu Sc Ac trans Ci sp]
+26.3 +22.8 81 +35 +37 очень
душно
1010.5 987.6
Ю 3 10 км 9/4 300 м
[Cu Sc Ac As]
+24.9 +22.9 89 +33 +33 очень
душно
1011.3 988.3 +29.4 2
ЮВ 1 10 км 9/4 300 м
[Cu Sc Ac As]
+23.4 +21.9 91 +32 +32 очень
душно
1013.8 990.7
В 1 10 км 10/10 300 м
[Sc]
+23.0 +21.8 93 +31 +31 очень
душно
1013.4 990.4
штиль 0 10 км 10/10 300 м
[Sc]
+22.7 +21.7 94 +30 +30 очень
душно
1011.9 988.9
штиль 0 10 км 9/6 300 м
[Cu Sc Ac cast Ci sp]
+23.1 +21.8 92 +31 +31 очень
душно
1013.1 990.0 +22.0 2
З 1 10 км 8/4 300 м
[Cu Sc Ac trans Ci sp]
+27.0 +22.5 76 +35 +40 очень
душно
1014.1 991.1
З 2 12 км 9/5 400 м
[Cu med, cong Ac trans Ci sp]
+30.1 +22.3 63 +39 +45 очень
душно
1011.6 988.8
ЮЗ 2 12 км 9/5 450 м
[Cu med, cong Ac trans Ci sp]
+30.7 +21.7 59 +39 +42 очень
душно
1009.7 986.9
ЮЗ 1 10 км 8/1 400 м
[Cb cap Ci sp]
+29.5 +24.1 73 +41 +41 опасность
перегрева
1010.2 987.3 +31.6
ЮВ 1 10 км 6/0
[Ac trans Ci sp]
+26.4 +23.4 84 +36 +36 очень
душно
1011.3 988.5
ЮЗ 1 10 км 6/0
[Ci sp]
+25.4 +23.4 89 +34 +34 очень
душно
1011.1 988.4
штиль 0 8000 м 8/4 300 м
[Sc Ci sp]
+24.3 +22.8 91 +32 +32 очень
душно
1009.7 987.0
Ю 2 8000 м 10/3 300 м
[Sc Ac As]
+24.0 +23.0 94 +32 +32 очень
душно
1011.1 988.3 +23.4
Местоположение метеостанции Сав (Бенин): широта 8.03 долгота 2.47 высота над уровнем моря 200 м.
В архиве по умолчанию представлена погода в Саве за последнюю неделю. Архивные данные за месяц целиком и за предыдущие месяцы, начиная с января 2011 года, Вы можете получить, выбрав интересующий диапазон дат из раскрывающегося списка и нажав кнопку "Найти!".
*Определитесь, кто Вы:
Внимание! Время в таблицах - всемирное. Для получения местного времени необходимо прибавить поправку, которая равна 1 ч.
Смотрите также архив погоды в соседних городах и на ближайших метеорологических станциях:
Партнеры нашего сайта:      
Пояснения к столбцам:
  • Ветер - указаны скорость ветра в м/с - средняя за 10 мин, порывы в срок и между сроками (в фигурных скобках) и направление, откуда дует ветер: С - северный,
  • СВ - северо-восточный, В - восточный, ЮВ - юго-восточный, Ю - южный, ЮЗ - юго-западный, З - западный, СЗ - северо-западный.
  • Видимость - горизонтальная дальность видимости в метрах или километрах. При видимости от 1 до 10 км при отсутствии осадков обычно наблюдается дымка, при ухудшении видимости до 1 км и менее - туман. В сухую погоду видимость может ухудшаться дымом, пылью или мглою.
  • Явления - указаны атмосферные явления, наблюдавшиеся в срок или в последний час перед сроком; фигурными скобками обозначены явления, наблюдавшиеся между сроками (за 1-3 часа до срока); квадратными скобками обозначены град или гололедные отложения с указанием их диаметра в мм.
  • Облачность - указаны через наклонную черту общая и нижняя облачность в баллах и высота нижней границы облаков в метрах; квадратными скобками обозначены формы облаков: Ci - перистые, Cs - перисто-слоистые, Cc - перисто-кучевые, Ac - высококучевые, As - высокослоистые, Sc - слоисто-кучевые, Ns - слоисто-дождевые, Cu - кучевые, Cb - кучево-дождевые. Подробнее классификацию облаков см. в Атласе облаков (PDF).
  • T - Температура воздуха - температура, измеренная на высоте 2 м над землей.
  • Td - Температура точки росы - температура, при понижении до которой содержащийся в воздухе водяной пар достигнет насыщения.
  • f - Относительная влажность воздуха - влажноcть воздуха, измеренная на высоте 2 м над землей.
  • Te - Эффективная температура - температура, которую ощущает одетый по сезону человек в тени. Характеристика душности погоды. При расчете учитывается влияние влажности воздуха и скорости ветра на теплоощущения человека.
  • Tes - Эффективная температура на солнце - температура, которую ощущает человек, с поправкой на солнечный нагрев. Характеристика знойности погоды. Зависит от высоты солнца над горизонтом, облачности и скорости ветра. Ночью, в пасмурную погоду, а также при ветре 12 м/с и более поправка равна нулю.
  • P - Атмосферное давление - приведенное к уровню моря атмосферное давление.
  • Po - Атмосферное давление - измеренное на уровне метеостанции атмосферное давление.
  • Tmin - Минимальная температура - минимум температуры воздуха на высоте 2 м над землей.
  • Tmax - Максимальная температура - максимум температуры воздуха на высоте 2 м над землей.
  • R - Количество осадков - Количество выпавших осадков за период времени, мм. При наведении курсора мыши на число - период времени, за который выпало указанное количество осадков.
  • R24 - Количество осадков - Количество выпавших осадков за 24 часа, мм.
  • S - Снежный покров - Высота снежного покрова, см. При наведении курсора мыши на число - состояние снежного покрова и степень покрытия местности в баллах.